Starlink 31036

operational
NORAD ID: 58533 Int'l Des: 2023-192 Owner: SPXS Country: US Constellation: starlink
LEOCIRCULAR

About Starlink 31036

Description loading...

Live Position

Loading 3D Globe...

Upcoming Passes

Altitude History

Altitude vs Time

uPlot chart will show altitude changes over time

Two-Line Element Set

1 58533U 23192C 25353.23186851 .00000420 00000-0 26315-4 0 9990
2 58533 53.1595 76.7258 0001169 85.8220 274.2914 15.30187272113663
Epoch: Dec 19, 2025 • Age: 11 hours

Current Status

Altitude 491.2 km
Velocity 7.62 km/s
Sub-Earth Point -45.14°S, 53.64°E
Launch Date Dec 8, 2023
Age 2 years
Type internet

Technical Details

Classification Payload
Mass 730.00 kg
Dry Mass 700.00 kg
Total Mass 730.00 kg
Length 0.30 m
Diameter 4.10 m
Span 29.00 m
Shape Box + pan
Manufacturer SPXS
Bus Type Starlink V2M
Phase Status In Orbit
Owner/State SPXS/US

Large Constellations

Loading constellations...